Hourly Data Report for April 30, 2004

SHERBROOKE A
QUEBEC

45°26'00.000" N
71°41'00.000" W
241.40 m
7028124
71610
YSC

Download Data

Hourly Data (April 2004)
Hourly Data Report for April 30, 2004
TIME
LST
Temp Definition
°C
Dew Point Definition
°C
Rel Hum Definition
%
Precip. Amount Definition
mm

Wind Dir Definition
10's deg

Wind Spd Definition
km/h
Visibility Definition
km
Stn Press Definition
kPa
Hmdx Definition


Wind Chill Definition


Weather Definition


00:00 16.8 5.3 47   24 13 15.0 98.89      
01:00 18.7 4.4 39   25 11 15.0 98.89      
02:00 16.3 4.4 45   18 7 15.0 98.89      
03:00 15.9 4.7 47   19 6 15.0 98.89      
04:00 13.2 4.6 56     0 15.0 98.91      
05:00 12.0 4.8 61   20 6 15.0 98.98      
06:00 16.5 5.8 49   21 7 15.0 99.00      
07:00 17.7 7.3 50   25 7 24.1 99.04     Mostly Cloudy
08:00 19.8 7.7 46   23 11 24.1 99.05     Cloudy
09:00 22.2 8.0 40   23 17 24.1 99.04     Mostly Cloudy
10:00 23.7 8.0 37   24 19 24.1 99.01     Mostly Cloudy
11:00 25.3 8.3 34   22 24 24.1 99.02 26   Mostly Cloudy
12:00 25.5 8.0 33   22 9 24.1 98.94 26   Mostly Cloudy
13:00 26.8 7.7 30   27 20 24.1 98.88 27   Mainly Clear
14:00 25.3 6.5 30   25 20 24.1 98.91 25   Mainly Clear
15:00 25.3 7.2 31   27 13 24.1 98.88 25   Mainly Clear
16:00 26.3 7.8 31   24 9 24.1 98.83 27   Mainly Clear
17:00 24.4 7.3 33   26 11 15.0 98.79 25    
18:00 22.5 8.0 39     0 15.0 98.80      
19:00 18.4 9.3 55     0 15.0 98.78      
20:00 17.6 9.7 60   11 4 15.0 98.81      
21:00 17.0 9.8 63   7 4 15.0 98.84      
22:00 15.6 9.7 68   13 6 15.0 98.86      
23:00 13.6 9.7 77     0 15.0 98.87      

Notes on Data Quality.

Legend

  • E = Estimated
  • M = Missing
  • NA = Not Available*
  • [empty] = Indicates an unobserved value
Date modified: